Content
SEND FEEDBACK

Daily
Averages
Monthly
Summary
United Kingdom

LONDON, ENGLAND


Home > Europe > United Kingdom > England
Elevation: 203 feet     Latitude: 51 09N     Longitude: 000 11W

WEATHER
 
SELECT A DAY
Number of Records: 297,572;   Date Range: 7/1/96 - 10/30/14
 
SHARE

PRINT THIS DATA

[ ← Previous Day ]
WEATHER ALMANAC - MAY 17, 2013
[ Next Day → ]
[ °C ]   °F
Weather ElementAverageHighLow
Temperature48.7 °F55.4 °F (1:20 pm)41 °F (3:50 am)
Dewpoint41.8 °F44.6 °F (7:50 am)39.2 °F (12:50 am)
Humidity78 %100 % (3:50 am)62 % (5:50 pm)
Barometer29.70 in29.80 in (8:50 pm)29.56 in (1:20 am)
Wind Speed7.9 mph12.7 mph (1:50 pm)
Wind Gust24.2 mph (2:50 pm)
Weather ElementAverage
Visibility5.6 mi
Wind DirectionE (89.6 °)

Weather ElementTotal
Precipitation---
Heating Degree Days16.8 (Base 65)
Averaged from 47 records on May 17, 2013
WEATHER CONDITIONS BREAKOUT
WIND DIRECTION BREAKOUT
WEATHER BY HOUR - MAY 17, 2013
[ °C ]   °F
Local TimeTemperatureDewpointHumidityBarometerVisibilityWind DirectionWind SpeedGust SpeedPrecipitationEventsConditions
12:50 AM42.8 °F39.2 °F87 %29.59 in6.2 miVariable2.3 mphScattered Clouds
1:20 AM42.8 °F41.0 °F93 %29.56 in6.2 miNE (50°)4.6 mphScattered Clouds
1:50 AM42.8 °F39.2 °F87 %29.59 in5.6 miEast (80°)5.8 mphScattered Clouds
2:20 AM44.6 °F42.8 °F93 %29.59 in5.6 miENE (70°)8.1 mphMostly Cloudy
2:50 AM44.6 °F42.8 °F93 %29.59 in4.3 miENE (70°)6.9 mphPartly Cloudy
3:20 AM42.8 °F41.0 °F93 %29.59 in3.7 miEast (80°)5.8 mphPartly Cloudy
3:50 AM41.0 °F41.0 °F100 %29.59 in3.7 miEast (80°)5.8 mph
4:20 AM42.8 °F41.0 °F93 %29.59 in3.7 miENE (60°)5.8 mph
4:50 AM41.0 °F39.2 °F93 %29.59 in3.7 miEast (80°)3.5 mph
5:20 AM41.0 °F39.2 °F93 %29.59 in3.7 miNE (50°)3.5 mph
5:50 AM41.0 °F39.2 °F93 %29.62 in3.1 miEast (100°)2.3 mphMist
6:20 AM42.8 °F42.8 °F100 %29.62 in3.1 miVariable3.5 mphHaze
6:50 AM42.8 °F41.0 °F93 %29.65 in3.7 miVariable3.5 mph
7:20 AM46.4 °F42.8 °F87 %29.65 inNE (40°)5.8 mphClear
7:50 AM46.4 °F44.6 °F93 %29.65 in6.2 miNE (40°)9.2 mphScattered Clouds
8:20 AM50.0 °F44.6 °F82 %29.68 in6.2 miNE (50°)6.9 mphScattered Clouds
8:50 AM50.0 °F44.6 °F82 %29.68 in6.2 miNE (40°)10.4 mphScattered Clouds
9:20 AM51.8 °F42.8 °F71 %29.68 in6.2 miNE (50°)10.4 mphMostly Cloudy
9:50 AM50.0 °F42.8 °F76 %29.68 in6.2 miVariable9.2 mphMostly Cloudy
10:20 AM51.8 °F42.8 °F71 %29.71 in6.2 miNE (40°)9.2 mphMostly Cloudy
10:50 AM51.8 °F41.0 °F67 %29.71 in6.2 miNNE (20°)10.4 mphMostly Cloudy
11:20 AM51.8 °F41.0 °F67 %29.71 in6.2 miNNE (30°)11.5 mphMostly Cloudy
11:50 AM51.8 °F41.0 °F67 %29.71 in6.2 miNE (40°)9.2 mphMostly Cloudy
12:20 PM51.8 °F42.8 °F71 %29.71 in6.2 miNE (40°)9.2 mphMostly Cloudy
12:50 PM53.6 °F42.8 °F67 %29.71 in6.2 miNNE (30°)10.4 mphScattered Clouds
1:20 PM55.4 °F42.8 °F63 %29.71 in6.2 miNE (50°)10.4 mphScattered Clouds
1:50 PM51.8 °F42.8 °F71 %29.74 in6.2 miNE (50°)12.7 mphScattered Clouds
2:20 PM53.6 °F42.8 °F67 %29.74 in6.2 miNE (50°)10.4 mphScattered Clouds
2:50 PM51.8 °F42.8 °F71 %29.74 in6.2 miNorth (10°)10.4 mph24.2 mphScattered Clouds
3:20 PM53.6 °F42.8 °F67 %29.74 in6.2 miNorth (360°)10.4 mphScattered Clouds
3:50 PM51.8 °F42.8 °F71 %29.74 in6.2 miNorth (360°)11.5 mphMostly Cloudy
4:20 PM51.8 °F42.8 °F71 %29.74 in6.2 miNNE (20°)10.4 mphMostly Cloudy
4:50 PM51.8 °F42.8 °F71 %29.74 in6.2 miNNE (30°)10.4 mphScattered Clouds
5:20 PM51.8 °F41.0 °F67 %29.74 in6.2 miNNE (20°)10.4 mphMostly Cloudy
5:50 PM51.8 °F39.2 °F62 %29.74 in6.2 miNorth (360°)10.4 mphScattered Clouds
6:20 PM51.8 °F39.2 °F62 %29.77 in6.2 miNNE (20°)10.4 mphScattered Clouds
6:50 PM51.8 °F41.0 °F67 %29.77 in6.2 miNNE (20°)9.2 mphMostly Cloudy
7:20 PM51.8 °F41.0 °F67 %29.77 in6.2 miNNW (340°)9.2 mphMostly Cloudy
7:50 PM51.8 °F41.0 °F67 %29.77 in6.2 miNorth (10°)9.2 mphMostly Cloudy
8:20 PM50.0 °F41.0 °F71 %29.77 in6.2 miNorth (10°)8.1 mphMostly Cloudy
8:50 PM50.0 °F41.0 °F71 %29.80 in6.2 miNNE (20°)8.1 mphMostly Cloudy
9:20 PM50.0 °F42.8 °F76 %29.80 in6.2 miNNE (30°)8.1 mphMostly Cloudy
9:50 PM50.0 °F42.8 °F76 %29.80 in6.2 miNorth (10°)5.8 mphMostly Cloudy
10:20 PM50.0 °F42.8 °F76 %29.80 in6.2 miNNW (330°)4.6 mphMostly Cloudy
10:50 PM50.0 °F42.8 °F76 %29.80 in5.6 miNW (320°)4.6 mphScattered Clouds
11:20 PM48.2 °F42.8 °F82 %29.80 in4.3 miNW (320°)4.6 mphScattered Clouds
11:50 PM48.2 °F42.8 °F82 %29.80 in5.0 miNNW (330°)6.9 mphPartly Cloudy
Hourly data recorded from EGKK, located miles away from London, England







STORIES FROM OUR PARTNERS